アトラス彗星

C/2019 N1 ( ATLAS )

English version
Home page
Updated on August 15, 2020

---------------------------------------------------------------------

・ プロフィール

発見日 2019年7月5日
発見光度 18.6等
発見者 Asteroid Terrestrial-Impact Last Alert System (ATLAS) search program

・ 写真集

・ 軌道要素

Epoch 2020 Dec. 17.0 TT = JDT 2459200.5
T 2020 Dec. 1.80584 TT                                  Rudenko
q   1.7046105            (2000.0)            P               Q
z  +0.0000477      Peri.  193.44640     -0.93823247     +0.25612049
 +/-0.0000013      Node    13.57325     -0.14505882     +0.31926244
e   0.9999187      Incl.   82.42755     -0.31413019     -0.91240002
From 1519 observations 2019 June 10-2020 July 31, mean residual 0".7.

・ 星図

・ 光度変化

        m1 = 9.0 + 5 logΔ + 7.0 log r

---------------------------------------------------------------------

軌道要素はM.P.E.C. 2020-P19に掲載されたものです。
星図はステラナビゲータ Ver.10 (アストロアーツ) で作成したものです。
光度グラフはComet for Windowsで作成したものです。

---------------------------------------------------------------------

Copyright(C) Seiichi Yoshida (comet@aerith.net). All rights reserved.